Terminal Aerodrome Forecast
Issued by NWS

Home | Current Version | Previous Version | Text Only | Print | Product List | Glossary On
Versions: 1 2 3 4 5 6 7 8 9 10 11 12 13 14
000
FTUS43 KOAX 210520
TAFSNY
TAF
KSNY 210520Z 2106/2206 31017G30KT P6SM BKN060
     FM210800 32030G42KT P6SM BKN050
     FM211500 31020G30KT P6SM SKC=

USA.gov is the U.S. government's official web portal to all federal, state and local government web resources and services.